Time,TemperatureF,DewpointF,PressureIn,WindDirection,WindDirectionDegrees,WindSpeedMPH,WindSpeedGustMPH,Humidity,HourlyPrecipIn,Conditions,Clouds,dailyrainin,SoftwareType,DateUTC
2013-04-12 00:22:00,53.0,50.0,29.82,North,0,0.0,-999.0,88,0.00,,,-99.99,,2013-04-12 07:22:00,
2013-04-12 00:32:00,53.0,50.0,29.82,North,0,0.0,-999.0,88,0.00,,,-99.99,,2013-04-12 07:32:00,
2013-04-12 00:42:00,53.0,50.0,29.82,North,0,0.0,-999.0,88,0.00,,,-99.99,,2013-04-12 07:42:00,
2013-04-12 00:52:00,53.0,50.0,29.82,North,0,0.0,-999.0,88,0.00,,,-99.99,,2013-04-12 07:52:00,
2013-04-12 01:22:00,53.0,49.0,29.82,SE,140,1.0,-999.0,87,0.00,,,-99.99,,2013-04-12 08:22:00,
2013-04-12 01:32:00,53.0,49.0,29.82,SE,140,1.0,-999.0,87,0.00,,,-99.99,,2013-04-12 08:32:00,
2013-04-12 01:42:00,53.0,49.0,29.82,SE,140,1.0,-999.0,87,0.00,,,-99.99,,2013-04-12 08:42:00,
2013-04-12 01:52:00,53.0,49.0,29.82,SE,140,1.0,-999.0,87,0.00,,,-99.99,,2013-04-12 08:52:00,
2013-04-12 02:22:00,53.0,49.0,29.80,North,0,0.0,-999.0,87,0.00,,,-99.99,,2013-04-12 09:22:00,
2013-04-12 02:32:00,53.0,49.0,29.80,North,0,0.0,-999.0,87,0.00,,,-99.99,,2013-04-12 09:32:00,
2013-04-12 02:43:00,53.0,49.0,29.80,North,0,0.0,-999.0,87,0.00,,,-99.99,,2013-04-12 09:43:00,
2013-04-12 02:52:00,53.0,49.0,29.80,North,0,0.0,-999.0,87,0.00,,,-99.99,,2013-04-12 09:52:00,
2013-04-12 03:23:00,53.0,49.0,29.80,North,0,0.0,-999.0,87,0.00,,,-99.99,,2013-04-12 10:23:00,
2013-04-12 03:33:00,53.0,49.0,29.80,North,0,0.0,-999.0,87,0.00,,,-99.99,,2013-04-12 10:33:00,
2013-04-12 03:42:00,53.0,49.0,29.80,North,0,0.0,-999.0,87,0.00,,,-99.99,,2013-04-12 10:42:00,
2013-04-12 03:52:00,53.0,49.0,29.80,North,0,0.0,-999.0,87,0.00,,,-99.99,,2013-04-12 10:52:00,
2013-04-12 04:22:00,53.0,49.0,29.81,North,0,0.0,-999.0,86,0.00,,,-99.99,,2013-04-12 11:22:00,
2013-04-12 04:32:00,53.0,49.0,29.81,North,0,0.0,-999.0,86,0.00,,,-99.99,,2013-04-12 11:32:00,
2013-04-12 04:42:00,53.0,49.0,29.81,North,0,0.0,-999.0,86,0.00,,,-99.99,,2013-04-12 11:42:00,
2013-04-12 04:52:00,53.0,49.0,29.81,North,0,0.0,-999.0,86,0.00,,,-99.99,,2013-04-12 11:52:00,
2013-04-12 05:22:00,53.0,48.0,29.80,North,0,0.0,-999.0,84,0.00,,,-99.99,,2013-04-12 12:22:00,
2013-04-12 05:32:00,53.0,48.0,29.80,North,0,0.0,-999.0,84,0.00,,,-99.99,,2013-04-12 12:32:00,
2013-04-12 05:42:00,53.0,48.0,29.80,North,0,0.0,-999.0,84,0.00,,,-99.99,,2013-04-12 12:42:00,
2013-04-12 05:52:00,53.0,48.0,29.80,North,0,0.0,-999.0,84,0.00,,,-99.99,,2013-04-12 12:52:00,
2013-04-12 06:22:00,53.0,49.0,29.79,North,0,0.0,-999.0,85,0.00,,,-99.99,,2013-04-12 13:22:00,
2013-04-12 06:32:00,53.0,49.0,29.79,North,0,0.0,-999.0,85,0.00,,,-99.99,,2013-04-12 13:32:00,
2013-04-12 06:42:00,53.0,49.0,29.79,North,0,0.0,-999.0,85,0.00,,,-99.99,,2013-04-12 13:42:00,
2013-04-12 06:52:00,53.0,49.0,29.79,North,0,0.0,-999.0,85,0.00,,,-99.99,,2013-04-12 13:52:00,
2013-04-12 07:22:00,53.0,49.0,29.81,North,0,0.0,-999.0,85,0.00,,,-99.99,,2013-04-12 14:22:00,
2013-04-12 07:32:00,53.0,49.0,29.81,North,0,0.0,-999.0,85,0.00,,,-99.99,,2013-04-12 14:32:00,
2013-04-12 07:42:00,53.0,49.0,29.81,North,0,0.0,-999.0,85,0.00,,,-99.99,,2013-04-12 14:42:00,
2013-04-12 07:52:00,53.0,49.0,29.81,North,0,0.0,-999.0,85,0.00,,,-99.99,,2013-04-12 14:52:00,
2013-04-12 08:22:00,53.0,49.0,29.84,WSW,240,2.0,-999.0,85,0.00,,,-99.99,,2013-04-12 15:22:00,
2013-04-12 08:33:00,53.0,49.0,29.84,WSW,240,2.0,-999.0,85,0.00,,,-99.99,,2013-04-12 15:33:00,
2013-04-12 08:43:00,53.0,49.0,29.84,WSW,240,2.0,-999.0,85,0.00,,,-99.99,,2013-04-12 15:43:00,
2013-04-12 08:52:00,53.0,49.0,29.84,WSW,240,2.0,-999.0,85,0.00,,,-99.99,,2013-04-12 15:52:00,
2013-04-12 09:23:00,55.0,50.0,29.84,North,0,0.0,-999.0,84,0.00,,,-99.99,,2013-04-12 16:23:00,
2013-04-12 09:33:00,55.0,50.0,29.84,North,0,0.0,-999.0,84,0.00,,,-99.99,,2013-04-12 16:33:00,
2013-04-12 09:42:00,55.0,50.0,29.84,North,0,0.0,-999.0,84,0.00,,,-99.99,,2013-04-12 16:42:00,
2013-04-12 09:52:00,55.0,50.0,29.84,North,0,0.0,-999.0,84,0.00,,,-99.99,,2013-04-12 16:52:00,
2013-04-12 09:54:00,57.0,51.0,29.86,West,270,1.0,-999.0,80,0.00,,,-99.99,,2013-04-12 16:54:00,
2013-04-12 10:22:00,57.0,51.0,29.86,West,270,1.0,-999.0,80,0.00,,,-99.99,,2013-04-12 17:22:00,
2013-04-12 10:33:00,57.0,51.0,29.86,West,270,1.0,-999.0,80,0.00,,,-99.99,,2013-04-12 17:33:00,
2013-04-12 10:44:00,57.0,51.0,29.86,West,270,1.0,-999.0,80,0.00,,,-99.99,,2013-04-12 17:44:00,
2013-04-12 12:26:00,59.0,51.0,29.86,West,260,2.0,-999.0,75,0.00,,,-99.99,,2013-04-12 19:26:00,
2013-04-12 12:32:00,59.0,51.0,29.86,West,260,2.0,-999.0,75,0.00,,,-99.99,,2013-04-12 19:32:00,
2013-04-12 12:42:00,59.0,51.0,29.86,West,260,2.0,-999.0,75,0.00,,,-99.99,,2013-04-12 19:42:00,
2013-04-12 12:52:00,59.0,51.0,29.86,West,260,2.0,-999.0,75,0.00,,,-99.99,,2013-04-12 19:52:00,
2013-04-12 13:22:00,60.0,52.0,29.84,West,270,9.0,-999.0,75,0.00,,,-99.99,,2013-04-12 20:22:00,
2013-04-12 13:32:00,60.0,52.0,29.84,West,270,9.0,-999.0,75,0.00,,,-99.99,,2013-04-12 20:32:00,
2013-04-12 13:42:00,60.0,52.0,29.84,West,270,9.0,-999.0,75,0.00,,,-99.99,,2013-04-12 20:42:00,
2013-04-12 13:52:00,60.0,52.0,29.84,West,270,9.0,-999.0,75,0.00,,,-99.99,,2013-04-12 20:52:00,
2013-04-12 14:22:00,61.0,52.0,29.82,West,270,4.0,-999.0,72,0.00,,,-99.99,,2013-04-12 21:22:00,
2013-04-12 14:32:00,61.0,52.0,29.82,West,270,4.0,-999.0,72,0.00,,,-99.99,,2013-04-12 21:32:00,
2013-04-12 14:42:00,61.0,52.0,29.82,West,270,4.0,-999.0,72,0.00,,,-99.99,,2013-04-12 21:42:00,
2013-04-12 14:52:00,61.0,52.0,29.82,West,270,4.0,-999.0,72,0.00,,,-99.99,,2013-04-12 21:52:00,
2013-04-12 15:22:00,61.0,52.0,29.81,West,270,7.0,-999.0,72,0.00,,,-99.99,,2013-04-12 22:22:00,
2013-04-12 15:32:00,61.0,52.0,29.81,West,270,7.0,-999.0,72,0.00,,,-99.99,,2013-04-12 22:32:00,
2013-04-12 15:42:00,61.0,52.0,29.81,West,270,7.0,-999.0,72,0.00,,,-99.99,,2013-04-12 22:42:00,
2013-04-12 15:52:00,61.0,52.0,29.81,West,270,7.0,-999.0,72,0.00,,,-99.99,,2013-04-12 22:52:00,
2013-04-12 16:22:00,62.0,53.0,29.80,WNW,290,9.0,-999.0,72,0.00,,,-99.99,,2013-04-12 23:22:00,
2013-04-12 16:32:00,62.0,53.0,29.80,WNW,290,9.0,-999.0,72,0.00,,,-99.99,,2013-04-12 23:32:00,
2013-04-12 16:42:00,62.0,53.0,29.80,WNW,290,9.0,-999.0,72,0.00,,,-99.99,,2013-04-12 23:42:00,
2013-04-12 16:52:00,62.0,53.0,29.80,WNW,290,9.0,-999.0,72,0.00,,,-99.99,,2013-04-12 23:52:00,
2013-04-12 17:22:00,61.0,52.0,29.79,West,270,6.0,-999.0,73,0.00,,,-99.99,,2013-04-13 00:22:00,
2013-04-12 17:32:00,61.0,52.0,29.79,West,270,6.0,-999.0,73,0.00,,,-99.99,,2013-04-13 00:32:00,
2013-04-12 17:42:00,61.0,52.0,29.79,West,270,6.0,-999.0,73,0.00,,,-99.99,,2013-04-13 00:42:00,
2013-04-12 17:52:00,61.0,52.0,29.79,West,270,6.0,-999.0,73,0.00,,,-99.99,,2013-04-13 00:52:00,
2013-04-12 18:22:00,60.0,52.0,29.79,West,260,4.0,-999.0,75,0.00,,,-99.99,,2013-04-13 01:22:00,
2013-04-12 18:32:00,60.0,52.0,29.79,West,260,4.0,-999.0,75,0.00,,,-99.99,,2013-04-13 01:32:00,
2013-04-12 18:42:00,60.0,52.0,29.79,West,260,4.0,-999.0,75,0.00,,,-99.99,,2013-04-13 01:42:00,
2013-04-12 18:52:00,60.0,52.0,29.79,West,260,4.0,-999.0,75,0.00,,,-99.99,,2013-04-13 01:52:00,
2013-04-12 19:22:00,57.0,52.0,29.80,WNW,290,6.0,-999.0,82,0.00,,,-99.99,,2013-04-13 02:22:00,
2013-04-12 19:32:00,57.0,52.0,29.80,WNW,290,6.0,-999.0,82,0.00,,,-99.99,,2013-04-13 02:32:00,
2013-04-12 19:42:00,57.0,52.0,29.80,WNW,290,6.0,-999.0,82,0.00,,,-99.99,,2013-04-13 02:42:00,
2013-04-12 19:52:00,57.0,52.0,29.80,WNW,290,6.0,-999.0,82,0.00,,,-99.99,,2013-04-13 02:52:00,
2013-04-12 20:22:00,54.0,51.0,29.83,West,270,2.0,-999.0,90,0.00,,,-99.99,,2013-04-13 03:22:00,
2013-04-12 20:33:00,54.0,51.0,29.83,West,270,2.0,-999.0,90,0.00,,,-99.99,,2013-04-13 03:33:00,
2013-04-12 20:42:00,54.0,51.0,29.83,West,270,2.0,-999.0,90,0.00,,,-99.99,,2013-04-13 03:42:00,
2013-04-12 20:52:00,54.0,51.0,29.83,West,270,2.0,-999.0,90,0.00,,,-99.99,,2013-04-13 03:52:00,
2013-04-12 21:23:00,53.0,50.0,29.86,North,0,0.0,-999.0,91,0.00,,,-99.99,,2013-04-13 04:23:00,
2013-04-12 21:33:00,53.0,50.0,29.86,North,0,0.0,-999.0,91,0.00,,,-99.99,,2013-04-13 04:33:00,
2013-04-12 21:42:00,53.0,50.0,29.86,North,0,0.0,-999.0,91,0.00,,,-99.99,,2013-04-13 04:42:00,
2013-04-12 21:53:00,53.0,50.0,29.86,North,0,0.0,-999.0,91,0.00,,,-99.99,,2013-04-13 04:53:00,
2013-04-12 22:22:00,53.0,51.0,29.88,SW,230,1.0,-999.0,92,0.00,,,-99.99,,2013-04-13 05:22:00,
2013-04-12 22:32:00,53.0,51.0,29.88,SW,230,1.0,-999.0,92,0.00,,,-99.99,,2013-04-13 05:32:00,
2013-04-12 22:42:00,53.0,51.0,29.88,SW,230,1.0,-999.0,92,0.00,,,-99.99,,2013-04-13 05:42:00,
2013-04-12 22:52:00,53.0,51.0,29.88,SW,230,1.0,-999.0,92,0.00,,,-99.99,,2013-04-13 05:52:00,
2013-04-12 23:23:00,54.0,52.0,29.88,North,0,0.0,-999.0,92,0.00,,,-99.99,,2013-04-13 06:23:00,
2013-04-12 23:34:00,54.0,52.0,29.88,North,0,0.0,-999.0,92,0.00,,,-99.99,,2013-04-13 06:34:00,
2013-04-12 23:45:00,54.0,52.0,29.88,North,0,0.0,-999.0,92,0.00,,,-99.99,,2013-04-13 06:45:00,
2013-04-12 23:53:00,54.0,52.0,29.88,North,0,0.0,-999.0,92,0.00,,,-99.99,,2013-04-13 06:53:00,